Location: Alpine
(43.1636°N, 111.0180°W)
Time: 05:21:42
(UTC+00:00)

Tiros 1 despin weight - Pass Details

Date: 30 May 2022
Orbit: 591 x 639 km, 48.2° (Epoch: 30 June)

Event Time Altitude Azimuth Distance (km) Brightness Sun altitude
Rises 23:15:53 0° 221° (SW) 2,895 ? 37.5°
Reaches altitude 10° 23:18:17 10° 214° (SW) 1,983 ? 37.0°
Maximum altitude 23:22:34 41° 144° (SE) 890 ? 36.2°
Drops below altitude 10° 23:26:49 10° 74° (ENE) 1,962 ? 35.5°
Sets 23:29:11 0° 68° (ENE) 2,860 ? 35.0°
